When you browse on this site, cookies collect data to enhance your experience and personalize the content and advertising you see.
Visit our Privacy Policy to learn more. By continuing to use the site, you agree to this use of cookies and data.
EN

Hourly Weather Matyldzin

Today, 27 September, Sunday

Time Temperature Precipitation Wind Pressure Humidity
00:00 +12°C° 2.3 mm 4 mps 735 mmHg 92%
01:00 +12°C° 0 mm 5 mps 735 mmHg 93%
02:00 +12°C° 3.7 mm 5 mps 735 mmHg 93%
03:00 +10°C° 3.7 mm 6 mps 735 mmHg 94%
04:00 +9°C° 3.7 mm 7 mps 734 mmHg 94%
05:00 +9°C° 1.9 mm 7 mps 735 mmHg 93%
06:00 +9°C° 1.9 mm 7 mps 735 mmHg 93%
07:00 +9°C° 0 mm 7 mps 736 mmHg 90%
08:00 +9°C° 0.7 mm 7 mps 737 mmHg 90%
09:00 +9°C° 0.7 mm 6 mps 737 mmHg 89%
10:00 +9°C° 0.7 mm 6 mps 738 mmHg 89%
11:00 +9°C° 0.4 mm 6 mps 739 mmHg 88%
12:00 +9°C° 0.4 mm 5 mps 740 mmHg 87%
13:00 +9°C° 0.4 mm 5 mps 741 mmHg 86%
14:00 +11°C° 0.1 mm 4 mps 741 mmHg 83%
15:00 +11°C° 0.1 mm 3 mps 742 mmHg 80%
16:00 +12°C° 0.1 mm 3 mps 743 mmHg 77%
17:00 +12°C° 0 mm 2 mps 743 mmHg 78%
18:00 +10°C° 0 mm 2 mps 744 mmHg 80%
19:00 +9°C° 0 mm 2 mps 745 mmHg 82%
20:00 +9°C° 0 mm 2 mps 745 mmHg 83%
21:00 +9°C° 0 mm 2 mps 746 mmHg 83%
22:00 +9°C° 0 mm 3 mps 747 mmHg 84%
23:00 +8°C° 0 mm 2 mps 747 mmHg 84%

Tomorrow, 28 September, Monday

Time Temperature Precipitation Wind Pressure Humidity
00:00 +8°C° 0 mm 2 mps 747 mmHg 84%
01:00 +9°C° 0 mm 1 mps 748 mmHg 84%
02:00 +9°C° 0 mm 1 mps 748 mmHg 84%
03:00 +8°C° 0 mm 2 mps 748 mmHg 84%
04:00 +7°C° 0 mm 2 mps 748 mmHg 84%
05:00 +8°C° 0 mm 2 mps 748 mmHg 83%
06:00 +9°C° 0 mm 2 mps 748 mmHg 83%
07:00 +9°C° 0 mm 2 mps 749 mmHg 82%
08:00 +11°C° 0 mm 3 mps 749 mmHg 77%
09:00 +13°C° 0 mm 3 mps 749 mmHg 71%
10:00 +14°C° 0 mm 3 mps 749 mmHg 65%
11:00 +15°C° 0 mm 4 mps 748 mmHg 61%
12:00 +17°C° 0 mm 4 mps 748 mmHg 57%
13:00 +18°C° 0 mm 4 mps 748 mmHg 53%
14:00 +18°C° 0 mm 4 mps 748 mmHg 56%
15:00 +17°C° 0 mm 4 mps 748 mmHg 59%
16:00 +17°C° 0 mm 4 mps 747 mmHg 62%
17:00 +16°C° 0 mm 3 mps 747 mmHg 65%
18:00 +14°C° 0 mm 3 mps 747 mmHg 69%
19:00 +13°C° 0 mm 3 mps 747 mmHg 72%
20:00 +13°C° 0 mm 3 mps 747 mmHg 76%
21:00 +12°C° 0 mm 3 mps 747 mmHg 80%
22:00 +12°C° 0 mm 3 mps 747 mmHg 83%
23:00 +12°C° 0 mm 3 mps 747 mmHg 84%

Day after tomorrow, 29 September, Tuesday

Time Temperature Precipitation Wind Pressure Humidity
00:00 +13°C° 0 mm 2 mps 747 mmHg 85%
01:00 +12°C° 0 mm 2 mps 747 mmHg 86%
02:00 +12°C° 0 mm 2 mps 747 mmHg 86%
03:00 +12°C° 0 mm 2 mps 746 mmHg 87%
04:00 +12°C° 0 mm 2 mps 746 mmHg 87%
05:00 +12°C° 0 mm 2 mps 746 mmHg 86%
06:00 +12°C° 0 mm 2 mps 746 mmHg 85%
07:00 +12°C° 0 mm 2 mps 746 mmHg 83%
08:00 +13°C° 0 mm 2 mps 746 mmHg 79%
09:00 +14°C° 0 mm 2 mps 746 mmHg 75%
10:00 +15°C° 0 mm 2 mps 746 mmHg 72%
11:00 +15°C° 0.4 mm 2 mps 746 mmHg 75%
12:00 +15°C° 0.4 mm 2 mps 746 mmHg 78%
13:00 +15°C° 0.4 mm 2 mps 746 mmHg 81%
14:00 +14°C° 1 mm 2 mps 746 mmHg 85%
15:00 +14°C° 1 mm 2 mps 746 mmHg 89%
16:00 +13°C° 1 mm 3 mps 746 mmHg 93%
17:00 +13°C° 0.2 mm 3 mps 746 mmHg 93%
18:00 +13°C° 0.2 mm 3 mps 746 mmHg 93%
19:00 +13°C° 0.2 mm 3 mps 746 mmHg 93%
20:00 +13°C° 0 mm 3 mps 746 mmHg 91%
21:00 +13°C° 0 mm 3 mps 746 mmHg 89%
22:00 +12°C° 0 mm 3 mps 746 mmHg 88%
23:00 +13°C° 0 mm 2 mps 746 mmHg 87%

30 September, Wednesday

Time Temperature Precipitation Wind Pressure Humidity
00:00 +13°C° 0 mm 2 mps 746 mmHg 87%
01:00 +13°C° 0 mm 2 mps 746 mmHg 86%
02:00 +12°C° 0 mm 3 mps 746 mmHg 87%
03:00 +12°C° 0 mm 3 mps 746 mmHg 88%
04:00 +11°C° 0 mm 3 mps 746 mmHg 89%
05:00 +11°C° 0 mm 3 mps 746 mmHg 88%
06:00 +11°C° 0 mm 4 mps 746 mmHg 87%
07:00 +11°C° 0 mm 4 mps 746 mmHg 85%
08:00 +12°C° 0 mm 4 mps 745 mmHg 84%
09:00 +13°C° 0 mm 4 mps 745 mmHg 82%
10:00 +14°C° 0 mm 4 mps 745 mmHg 80%
11:00 +15°C° 0 mm 5 mps 745 mmHg 76%
12:00 +17°C° 0 mm 5 mps 745 mmHg 71%
13:00 +19°C° 0 mm 5 mps 745 mmHg 67%
14:00 +17°C° 0.1 mm 5 mps 745 mmHg 69%
15:00 +18°C° 0.1 mm 4 mps 745 mmHg 71%
16:00 +18°C° 0.1 mm 4 mps 744 mmHg 73%
17:00 +17°C° 0.2 mm 3 mps 745 mmHg 76%
18:00 +16°C° 0.2 mm 3 mps 745 mmHg 80%
19:00 +14°C° 0.2 mm 3 mps 745 mmHg 83%
20:00 +14°C° 0.4 mm 3 mps 745 mmHg 85%
21:00 +15°C° 0.4 mm 2 mps 745 mmHg 88%
22:00 +14°C° 0.4 mm 2 mps 744 mmHg 91%
23:00 +14°C° 0 mm 2 mps 744 mmHg 90%

1 October, Thursday

Time Temperature Precipitation Wind Pressure Humidity
00:00 +13°C° 0 mm 3 mps 744 mmHg 90%
01:00 +12°C° 0 mm 3 mps 744 mmHg 90%
02:00 +12°C° 0 mm 3 mps 744 mmHg 89%
03:00 +11°C° 0 mm 3 mps 744 mmHg 89%
04:00 +11°C° 0 mm 3 mps 744 mmHg 88%
05:00 +11°C° 0 mm 3 mps 744 mmHg 86%
06:00 +11°C° 0 mm 3 mps 743 mmHg 83%
07:00 +11°C° 0 mm 3 mps 743 mmHg 81%
08:00 +12°C° 0 mm 3 mps 743 mmHg 75%
09:00 +13°C° 0 mm 3 mps 743 mmHg 69%
10:00 +16°C° 0 mm 3 mps 743 mmHg 63%
11:00 +16°C° 0 mm 3 mps 743 mmHg 63%
12:00 +16°C° 0 mm 3 mps 743 mmHg 64%
13:00 +16°C° 0 mm 3 mps 742 mmHg 64%
14:00 +16°C° 0 mm 3 mps 742 mmHg 68%
15:00 +16°C° 0 mm 3 mps 742 mmHg 71%
16:00 +14°C° 0 mm 3 mps 742 mmHg 75%
17:00 +14°C° 0 mm 3 mps 742 mmHg 79%
18:00 +13°C° 0 mm 3 mps 742 mmHg 83%
19:00 +12°C° 0 mm 3 mps 743 mmHg 87%
20:00 +12°C° 0 mm 2 mps 743 mmHg 90%
21:00 +12°C° 0 mm 2 mps 742 mmHg 92%
22:00 +10°C° 0 mm 2 mps 742 mmHg 95%
23:00 +10°C° 0 mm 2 mps 742 mmHg 95%

2 October, Friday

Time Temperature Precipitation Wind Pressure Humidity
00:00 +10°C° 0 mm 2 mps 742 mmHg 95%
01:00 +10°C° 0 mm 2 mps 742 mmHg 96%
02:00 +10°C° 0 mm 2 mps 742 mmHg 95%
03:00 +10°C° 0 mm 2 mps 742 mmHg 95%
04:00 +10°C° 0 mm 2 mps 742 mmHg 95%
05:00 +10°C° 0 mm 2 mps 742 mmHg 93%
06:00 +10°C° 0 mm 3 mps 742 mmHg 92%
07:00 +11°C° 0 mm 3 mps 742 mmHg 91%
08:00 +12°C° 0 mm 4 mps 742 mmHg 86%
09:00 +14°C° 0 mm 4 mps 742 mmHg 81%
10:00 +15°C° 0 mm 5 mps 742 mmHg 76%
11:00 +16°C° 0 mm 5 mps 742 mmHg 71%
12:00 +17°C° 0 mm 5 mps 742 mmHg 65%
13:00 +19°C° 0 mm 5 mps 742 mmHg 60%
14:00 +19°C° 0 mm 5 mps 742 mmHg 63%
15:00 +18°C° 0 mm 4 mps 742 mmHg 66%
16:00 +18°C° 0 mm 4 mps 742 mmHg 69%
17:00 +17°C° 0 mm 4 mps 742 mmHg 73%
18:00 +15°C° 0 mm 4 mps 742 mmHg 77%
19:00 +14°C° 0 mm 4 mps 742 mmHg 82%
20:00 +14°C° 0 mm 4 mps 742 mmHg 83%
21:00 +13°C° 0 mm 5 mps 742 mmHg 85%
22:00 +13°C° 0 mm 5 mps 742 mmHg 87%
23:00 +13°C° 0 mm 5 mps 742 mmHg 86%
Show more